TimeIST,TemperatureF,Dew PointF,Humidity,Sea Level PressureIn,VisibilityMPH,Wind Direction,Wind SpeedMPH,Gust SpeedMPH,PrecipitationIn,Events,Conditions,WindDirDegrees,DateUTC
12:00 AM,62.6,60.8,94,29.53,6.2,SE,13.8,-,N/A,,Mostly Cloudy,140,2013-08-01 23:00:00
12:30 AM,62.6,60.8,94,29.50,6.2,SSE,12.7,-,N/A,,Mostly Cloudy,150,2013-08-01 23:30:00
1:00 AM,64,57,71,29.52,9,South,17.9,,,,Partly Cloudy,190,2013-08-02 00:00:00
1:00 AM,64.4,59.0,83,29.50,6.2,South,16.1,-,N/A,,Mostly Cloudy,190,2013-08-02 00:00:00
1:30 AM,64.4,55.4,73,29.50,6.2,SSW,15.0,-,N/A,,Mostly Cloudy,210,2013-08-02 00:30:00
2:00 AM,64.4,55.4,73,29.50,6.2,SSW,15.0,-,N/A,,Scattered Clouds,200,2013-08-02 01:00:00
2:30 AM,64.4,55.4,73,29.50,6.2,South,13.8,-,N/A,,Partly Cloudy,180,2013-08-02 01:30:00
3:00 AM,64.4,55.4,73,29.50,6.2,South,17.3,-,N/A,,Scattered Clouds,190,2013-08-02 02:00:00
3:30 AM,62.6,55.4,77,29.50,6.2,South,12.7,-,N/A,,Scattered Clouds,190,2013-08-02 02:30:00
4:00 AM,62.6,55.4,77,29.50,6.2,South,16.1,-,N/A,,Scattered Clouds,190,2013-08-02 03:00:00
4:30 AM,62.6,53.6,72,29.50,6.2,SSW,12.7,-,N/A,,Mostly Cloudy,200,2013-08-02 03:30:00
5:00 AM,62.6,53.6,72,29.50,6.2,SSW,18.4,-,N/A,,Mostly Cloudy,200,2013-08-02 04:00:00
5:30 AM,60.8,53.6,77,29.50,6.2,SSW,20.7,-,N/A,,Mostly Cloudy,200,2013-08-02 04:30:00
6:00 AM,60.8,53.6,77,29.50,6.2,South,21.9,34.5,N/A,,Partly Cloudy,190,2013-08-02 05:00:00
6:30 AM,60.8,53.6,77,29.50,6.2,SSW,23.0,34.5,N/A,,Partly Cloudy,200,2013-08-02 05:30:00
7:00 AM,62,54,67,29.52,31,SSW,22.4,,,,Scattered Clouds,210,2013-08-02 06:00:00
7:00 AM,62.6,53.6,72,29.50,6.2,SSW,24.2,-,N/A,,Partly Cloudy,210,2013-08-02 06:00:00
7:30 AM,62.6,53.6,72,29.50,6.2,SSW,20.7,-,N/A,,Partly Cloudy,200,2013-08-02 06:30:00
8:00 AM,62.6,53.6,72,29.53,6.2,SSW,23.0,-,N/A,,Partly Cloudy,200,2013-08-02 07:00:00
8:30 AM,64.4,53.6,68,29.53,6.2,SSW,23.0,-,N/A,,Partly Cloudy,200,2013-08-02 07:30:00
9:00 AM,64.4,53.6,68,29.53,6.2,SSW,20.7,-,N/A,,Partly Cloudy,210,2013-08-02 08:00:00
9:30 AM,64.4,53.6,68,29.53,6.2,SSW,24.2,35.7,N/A,,Partly Cloudy,200,2013-08-02 08:30:00
10:00 AM,66.2,53.6,64,29.56,6.2,SW,18.4,-,N/A,,Partly Cloudy,220,2013-08-02 09:00:00
10:30 AM,66.2,53.6,64,29.56,6.2,SSW,19.6,-,N/A,,Scattered Clouds,210,2013-08-02 09:30:00
11:00 AM,66.2,51.8,60,29.56,6.2,SW,23.0,-,N/A,,Partly Cloudy,220,2013-08-02 10:00:00
11:30 AM,68.0,53.6,60,29.56,6.2,SW,23.0,-,N/A,,Partly Cloudy,220,2013-08-02 10:30:00
12:00 PM,68.0,53.6,60,29.56,6.2,SSW,21.9,-,N/A,,Scattered Clouds,200,2013-08-02 11:00:00
12:30 PM,68.0,53.6,60,29.56,6.2,SSW,20.7,-,N/A,,Scattered Clouds,210,2013-08-02 11:30:00
1:00 PM,69,53,47,29.56,37,SSW,20.1,,,,Partly Cloudy,200,2013-08-02 12:00:00
1:00 PM,69.8,53.6,56,29.56,6.2,SSW,20.7,-,N/A,,Scattered Clouds,200,2013-08-02 12:00:00
1:30 PM,69.8,53.6,56,29.56,6.2,SSW,21.9,-,N/A,,Partly Cloudy,210,2013-08-02 12:30:00
2:00 PM,69.8,55.4,60,29.56,6.2,SW,21.9,-,N/A,,Partly Cloudy,220,2013-08-02 13:00:00
2:30 PM,69.8,51.8,53,29.56,6.2,SSW,23.0,34.5,N/A,,Partly Cloudy,210,2013-08-02 13:30:00
3:00 PM,68.0,53.6,60,29.56,6.2,SSW,23.0,-,N/A,Rain,Light Rain Showers,200,2013-08-02 14:00:00
3:30 PM,64.4,48.2,56,29.59,6.2,WSW,25.3,36.8,N/A,Rain,Light Rain Showers,250,2013-08-02 14:30:00
4:00 PM,62.6,55.4,77,29.59,6.2,WSW,16.1,-,N/A,Rain,Light Rain Showers,240,2013-08-02 15:00:00
4:30 PM,62.6,57.2,82,29.59,3.7,SW,15.0,-,N/A,Rain,Light Rain Showers,230,2013-08-02 15:30:00
5:00 PM,60.8,55.4,82,29.59,6.2,South,15.0,-,N/A,Rain,Light Rain Showers,190,2013-08-02 16:00:00
5:30 PM,60.8,55.4,82,29.59,6.2,SSW,16.1,-,N/A,Rain,Light Rain Showers,210,2013-08-02 16:30:00
6:00 PM,62.6,55.4,77,29.59,6.2,SSW,11.5,-,N/A,Rain,Light Rain Showers,210,2013-08-02 17:00:00
6:30 PM,60.8,57.2,88,29.59,6.2,SW,10.4,-,N/A,,Scattered Clouds,220,2013-08-02 17:30:00
7:00 PM,60,57,86,29.61,12,WSW,11.2,,,Rain,Light Rain Showers,250,2013-08-02 18:00:00
7:00 PM,60.8,57.2,88,29.59,6.2,WSW,10.4,-,N/A,Rain,Light Rain Showers,240,2013-08-02 18:00:00
7:30 PM,60.8,55.4,82,29.59,6.2,SW,11.5,-,N/A,,Partly Cloudy,230,2013-08-02 18:30:00
8:00 PM,60.8,55.4,82,29.59,6.2,SW,12.7,-,N/A,,Partly Cloudy,220,2013-08-02 19:00:00
8:30 PM,60.8,53.6,77,29.62,6.2,SW,13.8,-,N/A,,Partly Cloudy,220,2013-08-02 19:30:00
9:00 PM,59.0,53.6,82,29.62,6.2,SW,10.4,-,N/A,,Partly Cloudy,220,2013-08-02 20:00:00
9:30 PM,59.0,53.6,82,29.62,6.2,SW,11.5,-,N/A,,Partly Cloudy,230,2013-08-02 20:30:00
10:00 PM,59.0,53.6,82,29.65,6.2,SW,9.2,-,N/A,,Partly Cloudy,230,2013-08-02 21:00:00
10:30 PM,57.2,53.6,88,29.65,6.2,SW,9.2,-,N/A,,Scattered Clouds,220,2013-08-02 21:30:00
11:00 PM,57.2,51.8,82,29.65,6.2,SW,12.7,-,N/A,,Scattered Clouds,220,2013-08-02 22:00:00
11:30 PM,57.2,53.6,88,29.65,6.2,SW,11.5,-,N/A,,Scattered Clouds,230,2013-08-02 22:30:00